Lapse_Rate
7.5 7.5 7.4 7.2 7.0 7.2 6.9 6.9 7.2 7.4 7.0 6.9 6.9 6.9 7.1 7.4 7.4 7.3 7.1 7.0 6.7 6.6 6.6 6.6 6.5 6.7 6.8 6.8 6.7 6.7 6.7 6.6
7.6 7.6 7.6 7.5 7.4 7.4 7.4 7.3 7.3 7.2 7.3 7.3 7.0 7.1 6.8 6.7 6.9 7.0 6.7 6.7 6.7 6.6 6.6 6.6 6.4 6.5 6.5 6.4 6.4 6.6 6.6 6.7
7.7 7.6 7.3 7.3 7.3 7.2 7.2 7.1 7.2 7.3 7.2 7.1 6.9 6.8 6.7 6.4 6.1 6.0 6.0 6.0 6.2 6.4 6.5 6.5 6.4 6.6 6.7 6.6 6.5 6.6 6.6 6.6
7.9 7.8 7.6 7.4 7.2 7.3 7.3 7.3 7.2 7.3 7.0 6.9 7.0 6.7 6.5 6.3 6.4 6.3 6.2 6.1 5.8 5.5 5.4 5.4 5.6 5.8 6.2 6.1 6.2 6.5 6.6 6.7
7.5 7.5 7.7 7.7 7.7 7.5 7.3 7.4 7.3 7.4 7.3 7.0 6.8 7.0 6.8 6.6 6.2 5.7 6.0 5.8 5.9 6.1 6.1 5.8 5.9 6.2 6.1 6.5 6.3 6.4 6.4 6.5
6.9 7.0 7.0 7.1 7.4 7.5 7.4 7.2 7.1 7.0 7.4 7.1 7.0 7.0 6.8 6.7 6.1 5.8 5.8 6.0 5.8 6.0 6.1 6.3 6.5 6.6 6.5 6.7 6.9 6.6 6.2 6.2
6.3 6.3 6.4 6.5 6.7 6.9 7.0 7.1 7.1 7.1 7.0 6.8 6.6 6.5 6.7 6.7 6.3 6.3 5.9 6.0 6.0 5.9 6.2 6.4 6.8 6.8 6.9 6.9 6.9 6.8 6.6 6.5
6.6 6.5 6.3 6.1 6.4 6.6 6.6 6.6 6.7 7.0 6.9 6.8 6.7 6.7 6.6 6.6 6.6 6.6 5.9 6.4 6.0 6.3 6.4 6.5 6.7 6.8 6.9 6.8 6.7 6.6 6.6 6.4
5.9 6.5 6.9 6.9 6.5 6.7 6.9 6.6 6.6 6.6 6.8 6.8 6.9 6.9 6.7 6.7 6.5 6.2 6.0 5.4 6.4 6.5 6.6 6.2 6.2 6.2 5.8 4.5 5.9 6.1 6.0 6.0
5.1 5.7 6.7 7.4 7.5 7.2 7.2 6.7 6.9 6.6 6.3 6.7 7.0 5.4 5.3 5.9 6.1 6.3 6.1 6.0 6.5 6.5 6.5 6.6 6.4 6.1 5.3 5.0 5.1 5.7 5.7 5.6
5.5 5.6 5.8 6.1 6.3 7.0 7.4 7.4 6.6 6.7 6.7 6.3 6.2 6.7 6.6 6.1 5.9 6.0 6.1 6.4 6.5 6.5 6.1 6.5 6.2 6.1 5.8 4.8 4.2 4.6 4.7 4.9
6.5 6.4 6.2 7.1 7.4 6.8 7.4 7.1 6.7 6.4 6.3 6.4 5.6 6.2 6.0 5.6 6.3 6.7 6.6 6.5 6.4 6.6 6.2 6.2 6.0 6.0 5.6 5.5 4.9 4.5 4.2 3.8
7.3 7.8 7.8 7.9 7.6 7.3 7.5 7.3 6.4 6.6 6.2 6.2 6.2 6.3 6.1 6.3 6.5 6.6 6.2 6.7 6.6 6.7 6.3 6.5 6.3 6.1 5.9 5.6 5.3 5.2 5.0 5.0
7.3 7.5 7.6 8.2 7.8 7.0 7.2 7.2 6.1 6.4 6.9 6.9 6.5 6.7 6.9 7.0 6.7 6.6 6.5 6.4 6.6 6.3 6.2 6.3 6.3 6.0 5.8 5.3 5.0 5.1 4.9 5.0
7.7 8.5 8.5 8.5 7.7 6.8 7.2 6.9 6.8 6.7 6.7 7.0 7.2 7.1 6.2 6.9 6.6 6.6 6.5 6.6 6.9 6.7 6.2 6.3 6.1 5.8 5.5 5.5 5.2 5.1 5.1 5.1
8.8 8.8 8.6 8.3 8.0 7.5 6.9 7.0 7.1 6.7 6.5 6.6 7.0 7.0 7.1 7.0 6.3 6.4 6.5 6.2 6.3 6.1 6.0 5.8 5.8 5.6 5.5 5.5 5.4 5.2 5.0 5.0
8.8 8.8 8.6 8.4 7.9 7.4 7.0 7.0 6.9 7.0 7.0 6.8 6.8 7.0 6.7 6.8 6.5 5.9 6.3 6.2 6.0 5.9 5.9 5.6 5.7 5.6 5.5 5.4 5.2 5.1 4.9 4.7
8.6 8.8 8.5 8.2 7.7 7.1 7.0 6.5 6.7 7.0 7.0 7.0 7.1 7.0 6.8 6.8 6.6 6.6 6.4 6.1 6.0 6.1 5.9 5.7 5.7 5.7 5.1 5.0 5.0 4.7 4.6 4.7
8.7 8.6 8.2 7.8 7.4 7.0 7.1 6.8 7.5 7.5 7.6 7.5 7.6 7.5 7.2 7.0 6.8 6.7 6.6 6.2 6.1 5.8 5.9 5.7 5.2 5.1 5.1 4.8 4.6 4.6 4.6 4.6
Wind_Speed
18 22 20 19 20 19 20 17 18 17 11 7 5 7 6 9 8 9 13 12 13 9 6 6 10 5 5 3 4 2 5 8
8 13 22 21 18 20 20 20 19 14 10 11 9 11 10 8 6 10 10 11 11 8 5 6 5 7 7 6 4 7 3 5
8 8 4 15 21 23 22 22 19 17 14 13 7 8 3 5 5 6 11 10 8 7 5 5 6 4 6 6 6 4 3 5
9 11 9 10 9 19 22 23 23 21 19 11 6 6 5 3 4 5 5 11 8 4 3 2 3 2 3 2 5 6 5 2
10 13 15 14 12 11 19 21 20 18 16 13 15 13 10 4 8 6 6 11 9 11 9 6 5 2 4 2 2 1 3 5
11 14 15 17 17 9 6 9 15 16 16 14 12 10 4 7 7 10 7 5 7 9 9 7 6 4 3 4 2 1 1 2
13 13 16 18 18 15 10 6 6 8 11 12 16 14 12 10 9 9 8 7 6 8 9 7 6 5 5 4 3 4 3 4
16 15 14 15 17 16 12 9 3 6 10 12 13 15 18 19 17 12 12 8 6 9 11 9 7 7 6 5 5 5 4 4
13 17 15 12 12 13 13 11 8 7 8 10 10 13 11 11 13 11 10 9 8 11 11 10 8 9 9 7 4 4 5 5
5 6 9 10 9 10 11 12 9 7 4 3 4 3 7 10 13 13 10 11 10 12 12 12 10 9 8 7 6 6 6 5
3 1 1 3 1 4 7 8 8 7 7 5 1 7 8 11 11 11 14 13 12 14 13 12 13 11 9 7 5 5 7 4
6 4 5 4 4 5 5 5 8 6 6 4 4 4 9 9 9 11 13 14 15 12 13 13 13 11 10 9 8 7 6 5
8 7 6 5 6 5 6 6 2 3 3 5 5 5 2 7 10 11 13 14 12 13 12 12 11 9 8 8 7 7 8 8
11 7 8 8 7 4 4 7 4 2 3 5 5 7 8 7 7 11 11 14 12 12 11 11 10 8 7 6 6 6 6 6
13 10 12 8 5 4 2 3 4 2 3 5 5 7 9 10 9 10 11 11 11 11 11 11 9 9 8 7 8 7 7 7
16 12 12 9 10 8 6 3 5 5 4 6 6 8 10 10 10 11 10 10 9 9 10 8 8 7 7 9 9 7 8 8
21 15 10 12 14 9 6 6 5 6 6 6 7 8 9 10 10 10 9 10 9 9 9 9 9 5 7 9 9 8 7 8
16 11 11 14 12 11 9 7 6 5 7 7 7 9 9 8 9 10 10 8 8 8 8 8 8 7 14 13 11 6 7 7
2 5 8 10 14 15 14 11 9 7 7 7 8 9 8 8 9 10 11 10 10 9 7 8 8 6 10 9 16 7 7 7
Wind_Direction
204 209 204 206 199 198 197 193 193 189 184 173 166 176 182 174 183 181 172 170 174 160 157 163 167 154 158 163 147 133 147 147
244 194 206 204 198 195 196 191 190 180 179 178 182 191 180 176 171 164 166 161 171 164 167 163 158 161 174 170 133 135 118 135
287 324 220 208 204 199 193 194 187 187 186 189 183 175 163 164 140 143 155 155 168 169 171 175 165 154 169 171 156 136 130 185
11 1 345 341 279 205 197 194 188 189 187 172 123 105 103 110 155 145 148 135 129 102 47 92 147 138 177 201 173 149 149 202
20 8 358 344 322 257 209 195 187 188 176 174 175 178 172 170 167 153 145 143 142 154 159 163 143 123 141 170 276 226 138 165
17 6 359 354 353 327 212 199 181 176 173 172 165 170 154 137 147 144 137 122 134 130 135 132 123 115 107 120 127 191 32 143
19 13 13 6 5 3 347 134 152 153 169 164 163 156 153 153 157 160 158 146 132 116 115 112 110 110 114 106 82 90 113 109
11 9 11 12 8 8 354 334 281 197 175 170 172 165 166 169 165 168 158 147 139 137 128 125 118 113 100 87 75 70 58 92
20 13 1 7 17 8 2 352 318 270 214 192 192 181 175 166 168 163 160 156 141 136 122 121 112 109 108 97 88 78 73 75
47 39 21 353 9 12 4 348 343 3 332 152 108 244 174 172 168 162 151 132 135 128 122 114 100 92 84 87 96 99 92 82
279 181 156 139 355 21 25 5 338 322 310 41 122 151 180 152 154 142 138 129 133 126 124 119 115 107 99 75 76 59 87 60
274 263 282 214 143 117 87 30 343 348 348 59 61 29 115 140 136 137 130 129 134 132 133 131 125 120 121 123 128 132 114 105
249 247 262 241 233 172 137 105 58 323 4 64 43 72 100 122 133 140 136 133 128 126 132 131 121 134 131 151 160 154 140 131
234 216 232 218 226 236 177 125 154 174 85 97 90 89 90 88 100 106 117 122 124 122 122 122 122 123 131 120 115 116 109 116
234 204 221 209 193 189 146 131 145 151 129 113 114 114 112 105 107 107 104 109 110 117 119 120 128 135 132 141 146 151 129 105
249 212 216 190 173 178 164 166 153 151 155 136 133 122 114 114 107 105 110 111 116 120 113 115 126 136 153 141 131 117 117 117
261 234 196 180 181 164 159 184 178 159 153 147 134 122 118 123 123 123 122 121 125 130 132 136 138 136 152 127 114 117 126 128
259 237 219 182 166 148 173 180 167 173 149 147 143 129 125 136 136 134 128 126 126 122 127 125 115 113 131 136 154 149 145 128
87 120 118 149 163 181 168 164 178 174 164 157 147 144 148 148 149 148 142 142 139 137 130 131 128 118 128 180 177 149 139 136